Location: Arroyo de Valdeoliva
(40.1604°N, 4.9878°W)
Time: 22:24:45
(UTC+00:00)

Daily predictions for brighter satellites

Satellite Brightness Start Highest point End
(mag) Time Altitude Azimuth Time Altitude Azimuth Time Altitude Azimuth
Cosmos 1782 3.0 17:17:14 10° SSW 17:20:48 66° W 17:24:23 10° N
ARIANE 5 R/B 3.0 17:18:12 10° SE 17:22:47 36° ENE 17:27:26 10° N
Cosmos 1607 4.0 17:19:50 10° NNW 17:26:02 62° NE 17:32:16 10° SE
Cosmos 2084 Rocket 3.9 17:22:31 10° NNW 17:26:27 37° NE 17:30:22 10° ESE
SOZ 4.4 17:23:49 10° WSW 17:27:25 55° NW 17:29:28 10° NE
Cosmos 1825 Rocket 4.4 17:24:27 10° NNE 17:28:11 27° ENE 17:31:52 10° SE
Cosmos 2098 Rocket 3.3 17:24:56 10° SSW 17:28:54 76° W 17:33:39 10° N
Cosmos 2180 Rocket 4.5 17:24:47 10° S 17:30:54 86° E 17:37:05 10° N
Cosmos 1758 Rocket 3.7 17:27:15 10° N 17:31:33 76° W 17:35:48 10° S
Gbstr 26 Del rocket 3.1 17:31:36 10° WSW 17:35:49 61° NW 17:39:36 10° NE
NOSS 3-2 (C) 3.6 17:31:10 10° SW 17:36:00 58° NW 17:41:43 10° NNE
Cosmos 2208 Rocket 4.4 17:32:10 10° NNW 17:37:18 70° WSW 17:42:28 10° S
UNK 3.7 17:32:46 10° NNE 17:37:22 83° ESE 17:41:54 10° SSW
SPOT 1/Viking Rocket 4.5 17:35:40 10° ESE 17:39:52 26° ENE 17:44:06 10° NNE
SMAP 3.0 17:37:04 10° SSE 17:41:42 72° ENE 17:46:21 10° N
Meteor 1-20 Rocket 4.1 17:38:09 10° N 17:43:38 75° E 17:49:06 10° SSE
Cosmos 724 4.3 17:37:39 10° NNW 17:43:42 84° ENE 17:49:34 10° SSE
Cosmos 1076 Rocket 4.4 17:42:34 10° NNE 17:46:16 27° ENE 17:49:58 10° SE
Landsat 7 3.8 17:41:55 10° SSE 17:46:30 61° ENE 17:51:06 10° N
IRS-P3 4.4 17:42:19 10° SE 17:47:18 43° ENE 17:52:18 10° N
Cosmos 2058 Rocket 4.3 17:43:52 10° SE 17:47:18 22° E 17:50:44 10° NE
CZ-4C R/B 3.1 17:41:39 10° NNW 17:48:56 70° NE 17:57:47 10° SE
Cosmos 2266 Rocket 3.9 17:43:02 10° N 17:49:10 78° E 17:55:12 10° S
COSMO-SKYMED 1 3.8 17:49:12 14° ENE 17:51:22 19° E 17:54:22 10° SE
Cosmos 783 Rocket 4.5 17:46:12 10° NNW 17:51:30 70° ENE 17:56:45 10° SSE
Cosmos 2297 Rocket 2.6 17:48:49 10° NNW 17:54:27 69° WSW 18:00:03 10° SSE
Cosmos 1606 Rocket 3.5 17:53:50 10° S 17:58:13 88° E 18:02:40 10° N
BlueWalker 3 3.9 17:56:52 10° WNW 18:00:04 29° SW 18:03:15 10° SSE
ATLAS CENTAUR R/B 3.3 17:58:07 10° WNW 18:00:44 24° WSW 18:03:16 10° S
EXPRESS MD2 2.4 17:59:01 10° SW 18:01:22 65° SE 18:03:06 23° ENE
Thor Agena Rocket 4.3 17:59:31 10° S 18:04:39 57° WSW 18:09:44 10° NNW
SAR-Lupe-3 3.6 18:05:01 23° NNE 18:06:21 59° E 18:08:48 10° S
USA 290 4.5 18:05:41 10° NW 18:08:33 29° WSW 18:11:24 10° SSW
AQUARIUS 4.0 18:04:21 10° SSE 18:08:44 77° ENE 18:13:09 10° N
Resurs 1-3 4.4 18:06:58 10° SE 18:10:37 28° ENE 18:14:18 10° N
BREEZE-M DEB (TANK) 3.0 18:10:22 10° WNW 18:11:44 18° N 18:12:05 17° N
Cosmos 2219 4.0 18:09:31 10° N 18:14:31 30° ENE 18:17:57 17° ESE
Cosmos 1980 Rocket 2.2 18:09:13 10° SSW 18:14:48 68° ESE 18:19:44 14° NNE
Hubble Space Telescope 3.1 18:14:01 10° SSW 18:15:23 12° S 18:16:46 10° SSE
CZ-2D R/B 3.5 18:15:10 10° S 18:18:14 54° W 18:21:19 10° NNW
Meteor 2-20 4.4 18:12:34 10° S 18:18:41 74° E 18:24:49 10° NNE
SL-16 R/B 4.4 18:14:51 10° N 18:19:57 27° WNW 18:25:01 10° WSW
NOSS 2-3 (C) 3.5 18:18:25 10° SW 18:21:51 54° NW 18:23:54 22° NNE
Cosmos 1726 Rocket 3.9 18:17:28 10° SSW 18:22:06 71° W 18:26:42 10° N
Spot 4 Rocket 4.3 18:17:33 10° SE 18:22:21 43° ENE 18:27:10 10° N
Meteor 1-5 Rocket 4.0 18:18:52 10° N 18:24:15 82° E 18:29:47 10° S
Cosmos 1898 Rocket 3.5 18:22:03 10° S 18:27:04 57° ESE 18:30:11 23° NE
Cosmos 2369 4.0 18:22:23 10° S 18:27:49 47° ESE 18:30:42 26° NE
Cosmos 2263 Rocket 2.2 18:23:49 10° NNW 18:29:24 56° ENE 18:34:58 10° SE
Okean 1 3.3 18:26:56 10° SSE 18:30:22 45° E 18:30:22 45° E
YAOGAN 1 2.6 18:30:02 10° SSE 18:34:08 52° ENE 18:38:17 10° N
Cosmos-2242 2.8 18:30:02 10° S 18:34:13 66° E 18:36:35 25° NNE
USA 238 DEB 3.6 18:30:29 10° SW 18:36:29 76° NW 18:41:14 20° NNE
USA 238 3.6 18:30:35 10° SW 18:36:35 77° NW 18:41:19 20° NNE
Cosmos 372 Rocket 3.9 18:34:22 10° SSW 18:39:31 87° WNW 18:43:10 20° NNE
SKYMED 2 3.7 18:36:02 11° N 18:40:13 74° WNW 18:44:32 10° SSW
Meteor 2-20 Rocket 4.3 18:34:09 10° S 18:40:25 77° E 18:46:28 10° N
Cosmos 1937 Rocket 3.4 18:40:44 10° S 18:45:50 61° ESE 18:47:30 40° NE
Cosmos 2227 Rocket 2.7 18:40:18 10° NNW 18:45:52 61° WSW 18:51:24 10° S
NOAA 15 4.5 18:45:49 10° SSE 18:51:06 86° ENE 18:56:25 10° NNW
Cosmos 2333 Rocket 4.2 18:50:35 10° SSE 18:51:19 13° SE 18:51:19 13° SE
Aureole 1 Rocket 3.9 18:52:04 10° SW 18:56:13 52° WNW 19:00:03 17° N
Cosmos 1953 Rocket 4.4 18:52:20 10° NNW 18:56:40 51° W 19:00:58 10° S
Meteor 2-10 4.2 18:52:49 10° NNW 18:58:15 81° W 19:03:50 10° S
Cosmos 967 Rocket 4.4 18:55:10 10° SSW 19:01:28 75° ESE 19:03:36 44° NE
Helios 1A Rocket 3.7 19:05:35 36° SSW 19:05:35 36° SSW 19:07:45 10° SSW
CZ-2D R/B 4.3 19:04:44 10° S 19:08:49 50° W 19:12:52 10° NNW
NOAA 6 3.8 19:04:04 10° SSE 19:09:10 82° ENE 19:14:17 10° NNW
COSMOS 2455 2.8 19:06:47 10° SSW 19:12:41 63° ESE 19:12:49 63° ESE
IRAS Rocket 4.3 19:11:47 10° S 19:17:16 75° WSW 19:22:46 10° NNW
COSMO-SKYMED 1 4.1 19:25:32 27° NW 19:26:43 32° WNW 19:30:22 10° SW
Meteor 2-6 Rocket 4.2 19:21:54 10° S 19:27:31 85° W 19:27:57 77° NNW
Cosmos 2082 3.8 19:27:33 10° NNW 19:32:39 71° NW 19:32:39 71° NW
Cosmos 2237 4.3 19:29:22 10° SSW 19:35:04 72° WNW 19:35:09 72° WNW
SL-16 R/B 3.3 19:35:01 10° SSW 19:38:03 33° S 19:38:03 33° S
Cosmos 2219 4.3 19:53:24 10° NW 19:58:43 40° WSW 20:00:03 35° SW
Cosmos 1980 Rocket 4.4 19:55:22 10° W 19:59:18 19° NW 20:01:30 16° NNW
